Time,TemperatureF,DewpointF,PressureIn,WindDirection,WindDirectionDegrees,WindSpeedMPH,WindSpeedGustMPH,Humidity,HourlyPrecipIn,Conditions,Clouds,dailyrainin,SoftwareType,DateUTC
2013-03-16 00:00:00,21.9,17.6,29.91,NNE,30,5.4,10.1,83,0.00,,---,0.00,VWS V14.00,2013-03-16 05:00:00,
2013-03-16 00:01:00,21.9,17.6,29.91,NNE,23,6.3,8.1,83,0.00,,---,0.00,VWS V14.00,2013-03-16 05:01:00,
2013-03-16 00:05:00,21.9,17.3,29.91,North,7,5.4,8.7,82,0.00,,---,0.00,VWS V14.00,2013-03-16 05:05:00,
2013-03-16 00:06:00,21.9,17.3,29.91,NNE,17,8.7,8.7,82,0.00,,---,0.00,VWS V14.00,2013-03-16 05:06:00,
2013-03-16 00:10:00,21.9,17.3,29.91,NNE,15,8.1,10.1,82,0.00,,---,0.00,VWS V14.00,2013-03-16 05:10:00,
2013-03-16 00:11:00,21.9,17.3,29.91,North,7,9.6,10.5,82,0.00,,---,0.00,VWS V14.00,2013-03-16 05:11:00,
2013-03-16 00:15:00,21.7,17.1,29.91,North,5,10.1,13.2,82,0.00,,---,0.00,VWS V14.00,2013-03-16 05:15:00,
2013-03-16 00:16:00,21.7,17.1,29.91,NNE,27,5.4,11.0,82,0.00,,---,0.00,VWS V14.00,2013-03-16 05:16:00,
2013-03-16 00:20:00,21.7,16.8,29.91,NNE,17,6.7,8.7,81,0.00,,---,0.00,VWS V14.00,2013-03-16 05:20:00,
2013-03-16 00:21:00,21.7,16.8,29.91,NNE,15,5.8,8.1,81,0.00,,---,0.00,VWS V14.00,2013-03-16 05:21:00,
2013-03-16 00:25:00,21.7,16.8,29.91,NE,45,8.1,8.3,81,0.00,,---,0.00,VWS V14.00,2013-03-16 05:25:00,
2013-03-16 00:26:00,21.7,16.8,29.91,NNE,27,5.4,8.1,81,0.00,,---,0.00,VWS V14.00,2013-03-16 05:26:00,
2013-03-16 00:30:00,21.7,16.8,29.91,North,8,10.5,10.5,81,0.00,,---,0.00,VWS V14.00,2013-03-16 05:30:00,
2013-03-16 00:31:00,21.7,16.8,29.91,North,5,10.1,10.5,81,0.00,,---,0.00,VWS V14.00,2013-03-16 05:31:00,
2013-03-16 00:35:00,21.7,16.5,29.91,NE,41,8.7,12.8,80,0.00,,---,0.00,VWS V14.00,2013-03-16 05:35:00,
2013-03-16 00:36:00,21.7,16.5,29.91,North,5,8.3,10.1,80,0.00,,---,0.00,VWS V14.00,2013-03-16 05:36:00,
2013-03-16 00:40:00,21.7,16.5,29.91,North,357,8.3,8.7,80,0.00,,---,0.00,VWS V14.00,2013-03-16 05:40:00,
2013-03-16 00:42:00,21.7,16.5,29.91,North,10,10.5,10.5,80,0.00,,---,0.00,VWS V14.00,2013-03-16 05:42:00,
2013-03-16 00:45:00,21.6,16.4,29.91,NNE,31,8.3,10.1,80,0.00,,---,0.00,VWS V14.00,2013-03-16 05:45:00,
2013-03-16 00:47:00,21.6,16.4,29.91,North,357,8.1,11.0,80,0.00,,---,0.00,VWS V14.00,2013-03-16 05:47:00,
2013-03-16 00:50:00,21.6,16.1,29.91,NNE,15,13.2,13.2,79,0.00,,---,0.00,VWS V14.00,2013-03-16 05:50:00,
2013-03-16 00:52:00,21.6,16.1,29.91,North,357,10.1,12.8,79,0.00,,---,0.00,VWS V14.00,2013-03-16 05:52:00,
2013-03-16 00:55:00,21.6,16.1,29.91,North,9,10.5,10.5,79,0.00,,---,0.00,VWS V14.00,2013-03-16 05:55:00,
2013-03-16 00:57:00,21.6,15.8,29.93,NNE,28,7.2,11.0,78,0.00,,---,0.00,VWS V14.00,2013-03-16 05:57:00,
2013-03-16 01:00:00,21.4,15.6,29.93,NNE,12,5.4,11.9,78,0.00,,---,0.00,VWS V14.00,2013-03-16 06:00:00,
2013-03-16 01:02:00,21.4,15.3,29.93,NNE,19,10.5,12.8,77,0.00,,---,0.00,VWS V14.00,2013-03-16 06:02:00,
2013-03-16 01:05:00,21.4,15.3,29.93,NNE,29,8.1,10.5,77,0.00,,---,0.00,VWS V14.00,2013-03-16 06:05:00,
2013-03-16 01:07:00,21.4,15.3,29.93,NNE,19,6.3,8.7,77,0.00,,---,0.00,VWS V14.00,2013-03-16 06:07:00,
2013-03-16 01:10:00,21.4,15.0,29.93,NE,45,4.0,8.3,76,0.00,,---,0.00,VWS V14.00,2013-03-16 06:10:00,
2013-03-16 01:12:00,21.4,15.0,29.93,North,9,10.5,13.6,76,0.00,,---,0.00,VWS V14.00,2013-03-16 06:12:00,
2013-03-16 01:15:00,21.4,15.0,29.93,North,11,10.5,13.2,76,0.00,,---,0.00,VWS V14.00,2013-03-16 06:15:00,
2013-03-16 01:17:00,21.4,14.7,29.93,NNE,16,11.0,11.0,75,0.00,,---,0.00,VWS V14.00,2013-03-16 06:17:00,
2013-03-16 01:20:00,21.4,14.7,29.93,NNE,24,11.0,13.2,75,0.00,,---,0.00,VWS V14.00,2013-03-16 06:20:00,
2013-03-16 01:22:00,21.2,14.5,29.93,North,10,10.5,12.8,75,0.00,,---,0.00,VWS V14.00,2013-03-16 06:22:00,
2013-03-16 01:25:00,21.2,14.5,29.93,NNE,12,7.6,10.5,75,0.00,,---,0.00,VWS V14.00,2013-03-16 06:25:00,
2013-03-16 01:27:00,21.2,14.5,29.93,NNE,21,7.6,8.7,75,0.00,,---,0.00,VWS V14.00,2013-03-16 06:27:00,
2013-03-16 01:30:00,21.2,14.5,29.93,NNE,18,5.8,8.3,75,0.00,,---,0.00,VWS V14.00,2013-03-16 06:30:00,
2013-03-16 01:32:00,21.2,14.8,29.93,North,8,8.1,10.5,76,0.00,,---,0.00,VWS V14.00,2013-03-16 06:32:00,
2013-03-16 01:35:00,21.2,14.8,29.93,North,357,7.6,12.8,76,0.00,,---,0.00,VWS V14.00,2013-03-16 06:35:00,
2013-03-16 01:37:00,21.2,14.8,29.93,NNE,28,8.3,9.2,76,0.00,,---,0.00,VWS V14.00,2013-03-16 06:37:00,
2013-03-16 01:40:00,21.2,14.8,29.93,North,11,8.3,8.7,76,0.00,,---,0.00,VWS V14.00,2013-03-16 06:40:00,
2013-03-16 01:42:00,21.2,15.1,29.93,NNE,18,6.3,7.2,77,0.00,,---,0.00,VWS V14.00,2013-03-16 06:42:00,
2013-03-16 01:45:00,21.2,15.1,29.93,North,4,8.3,8.7,77,0.00,,---,0.00,VWS V14.00,2013-03-16 06:45:00,
2013-03-16 01:47:00,21.2,15.1,29.93,North,5,10.5,10.5,77,0.00,,---,0.00,VWS V14.00,2013-03-16 06:47:00,
2013-03-16 01:50:00,21.2,15.4,29.93,NNE,21,8.3,8.7,78,0.00,,---,0.00,VWS V14.00,2013-03-16 06:50:00,
2013-03-16 01:52:00,21.2,15.4,29.93,NNE,13,5.4,7.6,78,0.00,,---,0.00,VWS V14.00,2013-03-16 06:52:00,
2013-03-16 01:55:00,21.2,15.4,29.93,NNE,27,9.6,9.6,78,0.00,,---,0.00,VWS V14.00,2013-03-16 06:55:00,
2013-03-16 01:57:00,21.2,15.7,29.93,NNE,16,8.7,10.5,79,0.00,,---,0.00,VWS V14.00,2013-03-16 06:57:00,
2013-03-16 02:00:00,21.2,15.7,29.93,NE,35,5.4,7.6,79,0.00,,---,0.00,VWS V14.00,2013-03-16 07:00:00,
2013-03-16 02:02:00,21.2,15.7,29.93,NE,34,8.1,8.1,79,0.00,,---,0.00,VWS V14.00,2013-03-16 07:02:00,
2013-03-16 02:05:00,21.0,15.8,29.93,NE,41,6.3,8.7,80,0.00,,---,0.00,VWS V14.00,2013-03-16 07:05:00,
2013-03-16 02:07:00,21.0,15.8,29.93,NNE,27,6.3,8.7,80,0.00,,---,0.00,VWS V14.00,2013-03-16 07:07:00,
2013-03-16 02:10:00,20.8,15.6,29.93,NE,50,5.8,8.3,80,0.00,,---,0.00,VWS V14.00,2013-03-16 07:10:00,
2013-03-16 02:12:00,20.8,15.7,29.93,NNE,23,5.4,8.1,80,0.00,,---,0.00,VWS V14.00,2013-03-16 07:12:00,
2013-03-16 02:15:00,20.8,15.6,29.93,NE,39,5.4,8.1,80,0.00,,---,0.00,VWS V14.00,2013-03-16 07:15:00,
2013-03-16 02:17:00,20.7,15.5,29.93,NNE,27,7.2,8.3,80,0.00,,---,0.00,VWS V14.00,2013-03-16 07:17:00,
2013-03-16 02:20:00,20.7,15.5,29.93,NNE,24,11.0,13.2,80,0.00,,---,0.00,VWS V14.00,2013-03-16 07:20:00,
2013-03-16 02:22:00,20.5,15.3,29.93,NNE,26,12.8,12.8,80,0.00,,---,0.00,VWS V14.00,2013-03-16 07:22:00,
2013-03-16 02:25:00,20.5,15.0,29.93,NNE,14,9.2,11.4,79,0.00,,---,0.00,VWS V14.00,2013-03-16 07:25:00,
2013-03-16 02:27:00,20.5,15.0,29.93,NNE,28,8.3,12.8,79,0.00,,---,0.00,VWS V14.00,2013-03-16 07:27:00,
2013-03-16 02:30:00,20.3,14.8,29.93,North,4,8.1,8.7,79,0.00,,---,0.00,VWS V14.00,2013-03-16 07:30:00,
2013-03-16 02:32:00,20.3,14.6,29.93,NNE,18,8.1,13.2,78,0.00,,---,0.00,VWS V14.00,2013-03-16 07:32:00,
2013-03-16 02:35:00,20.3,14.6,29.93,North,357,10.5,13.6,78,0.00,,---,0.00,VWS V14.00,2013-03-16 07:35:00,
2013-03-16 02:37:00,20.1,14.1,29.93,NNE,12,10.1,13.2,77,0.00,,---,0.00,VWS V14.00,2013-03-16 07:37:00,
2013-03-16 02:40:00,20.1,13.8,29.93,NNE,20,8.7,10.5,76,0.00,,---,0.00,VWS V14.00,2013-03-16 07:40:00,
2013-03-16 02:42:00,20.1,13.8,29.93,NNE,19,6.3,6.3,76,0.00,,---,0.00,VWS V14.00,2013-03-16 07:42:00,
2013-03-16 02:45:00,20.1,13.5,29.93,NNE,12,8.3,9.2,75,0.00,,---,0.00,VWS V14.00,2013-03-16 07:45:00,
2013-03-16 02:48:00,20.1,13.2,29.93,NNE,19,9.2,9.2,74,0.00,,---,0.00,VWS V14.00,2013-03-16 07:48:00,
2013-03-16 02:50:00,20.1,13.2,29.93,NNE,29,10.1,11.0,74,0.00,,---,0.00,VWS V14.00,2013-03-16 07:50:00,
2013-03-16 02:53:00,20.1,12.9,29.93,North,10,6.3,12.3,73,0.00,,---,0.00,VWS V14.00,2013-03-16 07:53:00,
2013-03-16 02:55:00,20.1,12.6,29.93,NE,35,9.6,11.0,72,0.00,,---,0.00,VWS V14.00,2013-03-16 07:55:00,
2013-03-16 02:58:00,20.1,12.2,29.93,North,3,11.0,11.0,71,0.00,,---,0.00,VWS V14.00,2013-03-16 07:58:00,
2013-03-16 03:00:00,20.1,12.2,29.93,NNE,15,10.1,12.3,71,0.00,,---,0.00,VWS V14.00,2013-03-16 08:00:00,
2013-03-16 03:03:00,20.1,11.9,29.93,North,8,8.1,10.1,70,0.00,,---,0.00,VWS V14.00,2013-03-16 08:03:00,
2013-03-16 03:05:00,20.1,11.9,29.93,NNE,29,10.1,10.1,70,0.00,,---,0.00,VWS V14.00,2013-03-16 08:05:00,
2013-03-16 03:08:00,20.1,11.9,29.93,NNE,12,8.7,12.3,70,0.00,,---,0.00,VWS V14.00,2013-03-16 08:08:00,
2013-03-16 03:10:00,20.1,11.9,29.93,North,5,11.0,11.4,70,0.00,,---,0.00,VWS V14.00,2013-03-16 08:10:00,
2013-03-16 03:13:00,20.1,11.9,29.93,NNE,14,7.6,8.3,70,0.00,,---,0.00,VWS V14.00,2013-03-16 08:13:00,
2013-03-16 03:15:00,20.1,11.9,29.93,North,9,7.6,10.5,70,0.00,,---,0.00,VWS V14.00,2013-03-16 08:15:00,
2013-03-16 03:20:00,20.3,12.1,29.93,North,0,8.7,8.7,70,0.00,,---,0.00,VWS V14.00,2013-03-16 08:20:00,
2013-03-16 03:25:00,20.3,12.4,29.93,North,0,6.3,8.7,71,0.00,,---,0.00,VWS V14.00,2013-03-16 08:25:00,
2013-03-16 03:31:00,20.1,12.6,29.96,North,2,11.0,15.4,72,0.00,,---,0.00,VWS V14.00,2013-03-16 08:31:00,
2013-03-16 03:36:00,20.1,12.6,29.96,North,7,12.8,13.2,72,0.00,,---,0.00,VWS V14.00,2013-03-16 08:36:00,
2013-03-16 03:41:00,19.9,12.4,29.96,NNE,15,9.6,11.4,72,0.00,,---,0.00,VWS V14.00,2013-03-16 08:41:00,
2013-03-16 03:46:00,19.9,12.1,29.96,NNE,15,9.6,11.4,71,0.00,,---,0.00,VWS V14.00,2013-03-16 08:46:00,
2013-03-16 03:51:00,19.8,11.9,29.96,North,0,13.2,13.2,71,0.00,,---,0.00,VWS V14.00,2013-03-16 08:51:00,
2013-03-16 03:56:00,19.8,11.6,29.96,North,9,12.8,15.0,70,0.00,,---,0.00,VWS V14.00,2013-03-16 08:56:00,
2013-03-16 04:01:00,19.6,11.4,29.96,North,357,15.0,15.0,70,0.00,,---,0.00,VWS V14.00,2013-03-16 09:01:00,
2013-03-16 04:06:00,19.6,11.1,29.96,North,10,13.2,13.2,69,0.00,,---,0.00,VWS V14.00,2013-03-16 09:06:00,
2013-03-16 04:11:00,19.6,11.1,29.96,NNE,12,10.1,15.0,69,0.00,,---,0.00,VWS V14.00,2013-03-16 09:11:00,
2013-03-16 04:16:00,19.4,10.9,29.96,North,1,10.5,12.8,69,0.00,,---,0.00,VWS V14.00,2013-03-16 09:16:00,
2013-03-16 04:21:00,19.4,10.9,29.96,NNE,24,13.2,13.2,69,0.00,,---,0.00,VWS V14.00,2013-03-16 09:21:00,
2013-03-16 04:26:00,19.4,10.6,29.96,NNE,24,10.5,11.0,68,0.00,,---,0.00,VWS V14.00,2013-03-16 09:26:00,
2013-03-16 04:31:00,19.2,10.4,29.96,North,6,11.0,11.4,68,0.00,,---,0.00,VWS V14.00,2013-03-16 09:31:00,
2013-03-16 04:36:00,19.2,10.4,29.96,North,357,8.7,10.5,68,0.00,,---,0.00,VWS V14.00,2013-03-16 09:36:00,
2013-03-16 04:42:00,19.2,10.4,29.96,North,4,13.6,13.6,68,0.00,,---,0.00,VWS V14.00,2013-03-16 09:42:00,
2013-03-16 04:47:00,19.2,10.4,29.99,North,357,8.7,10.5,68,0.00,,---,0.00,VWS V14.00,2013-03-16 09:47:00,
2013-03-16 04:52:00,19.2,10.4,29.99,NNE,15,8.1,11.0,68,0.00,,---,0.00,VWS V14.00,2013-03-16 09:52:00,
2013-03-16 04:57:00,19.0,10.2,29.99,North,357,8.3,11.4,68,0.00,,---,0.00,VWS V14.00,2013-03-16 09:57:00,
2013-03-16 05:02:00,19.0,10.2,29.99,North,1,10.5,10.5,68,0.00,,---,0.00,VWS V14.00,2013-03-16 10:02:00,
2013-03-16 05:07:00,19.0,10.2,29.99,North,3,8.3,11.0,68,0.00,,---,0.00,VWS V14.00,2013-03-16 10:07:00,
2013-03-16 05:12:00,19.0,10.2,29.99,North,353,13.2,13.2,68,0.00,,---,0.00,VWS V14.00,2013-03-16 10:12:00,
2013-03-16 05:17:00,18.9,10.1,29.99,North,357,7.6,8.7,68,0.00,,---,0.00,VWS V14.00,2013-03-16 10:17:00,
2013-03-16 05:22:00,18.5,9.7,29.99,North,357,11.0,11.0,68,0.00,,---,0.00,VWS V14.00,2013-03-16 10:22:00,
2013-03-16 05:27:00,18.3,9.2,29.99,North,1,8.1,10.5,67,0.00,,---,0.00,VWS V14.00,2013-03-16 10:27:00,
2013-03-16 05:32:00,17.8,8.7,29.99,North,0,8.3,8.3,67,0.00,,---,0.00,VWS V14.00,2013-03-16 10:32:00,
2013-03-16 05:37:00,17.4,8.7,29.99,North,353,8.7,10.5,68,0.00,,---,0.00,VWS V14.00,2013-03-16 10:37:00,
2013-03-16 05:42:00,17.1,8.3,30.02,North,0,7.2,8.7,68,0.00,,---,0.00,VWS V14.00,2013-03-16 10:42:00,
2013-03-16 05:47:00,16.5,7.8,30.02,North,357,5.8,6.3,68,0.00,,---,0.00,VWS V14.00,2013-03-16 10:47:00,
2013-03-16 05:52:00,16.0,7.3,30.02,North,357,5.8,7.6,68,0.00,,---,0.00,VWS V14.00,2013-03-16 10:52:00,
2013-03-16 05:57:00,15.3,6.6,30.02,North,0,5.8,6.3,68,0.00,,---,0.00,VWS V14.00,2013-03-16 10:57:00,
2013-03-16 06:02:00,14.7,6.1,30.02,NNW,337,5.4,5.4,68,0.00,,---,0.00,VWS V14.00,2013-03-16 11:02:00,
2013-03-16 06:07:00,14.2,5.6,30.02,North,353,8.1,8.1,68,0.00,,---,0.00,VWS V14.00,2013-03-16 11:07:00,
2013-03-16 06:12:00,14.2,6.2,30.02,NNW,348,7.6,8.1,70,0.00,,---,0.00,VWS V14.00,2013-03-16 11:12:00,
2013-03-16 06:17:00,14.4,7.0,30.02,NNW,339,7.6,7.6,72,0.00,,---,0.00,VWS V14.00,2013-03-16 11:17:00,
2013-03-16 06:22:00,14.4,7.6,30.02,North,353,8.7,8.7,74,0.00,,---,0.00,VWS V14.00,2013-03-16 11:22:00,
2013-03-16 06:27:00,14.4,7.9,30.02,North,0,7.6,7.6,75,0.00,,---,0.00,VWS V14.00,2013-03-16 11:27:00,
2013-03-16 06:32:00,14.2,7.7,30.02,North,0,7.6,8.1,75,0.00,,---,0.00,VWS V14.00,2013-03-16 11:32:00,
2013-03-16 06:37:00,13.6,7.2,30.02,North,353,5.4,7.2,75,0.00,,---,0.00,VWS V14.00,2013-03-16 11:37:00,
2013-03-16 06:42:00,13.1,6.7,30.05,NNW,346,5.4,6.3,75,0.00,,---,0.00,VWS V14.00,2013-03-16 11:42:00,
2013-03-16 06:47:00,13.1,6.7,30.05,NNW,334,8.3,8.3,75,0.00,,---,0.00,VWS V14.00,2013-03-16 11:47:00,
2013-03-16 06:53:00,13.1,6.7,30.05,NNW,344,7.6,8.1,75,0.00,,---,0.00,VWS V14.00,2013-03-16 11:53:00,
2013-03-16 06:57:00,13.3,6.8,30.05,North,353,6.3,8.7,75,0.00,,---,0.00,VWS V14.00,2013-03-16 11:57:00,
2013-03-16 07:03:00,12.9,6.5,30.05,NNW,343,7.2,8.7,75,0.00,,---,0.00,VWS V14.00,2013-03-16 12:03:00,
2013-03-16 07:08:00,12.6,6.2,30.05,North,353,5.8,7.6,75,0.00,,---,0.00,VWS V14.00,2013-03-16 12:08:00,
2013-03-16 07:13:00,12.6,6.2,30.05,NNW,339,7.6,7.6,75,0.00,,---,0.00,VWS V14.00,2013-03-16 12:13:00,
2013-03-16 07:18:00,12.6,6.2,30.05,NNW,332,5.8,5.8,75,0.00,,---,0.00,VWS V14.00,2013-03-16 12:18:00,
2013-03-16 07:23:00,12.6,6.2,30.05,North,0,5.4,6.3,75,0.00,,---,0.00,VWS V14.00,2013-03-16 12:23:00,
2013-03-16 07:28:00,12.4,6.0,30.05,North,2,6.3,6.3,75,0.00,,---,0.00,VWS V14.00,2013-03-16 12:28:00,
2013-03-16 07:33:00,12.0,5.6,30.05,North,0,5.8,5.8,75,0.00,,---,0.00,VWS V14.00,2013-03-16 12:33:00,
2013-03-16 07:38:00,11.7,5.3,30.05,North,0,5.8,6.3,75,0.00,,---,0.00,VWS V14.00,2013-03-16 12:38:00,
2013-03-16 07:43:00,11.3,4.9,30.08,North,353,5.4,6.3,75,0.00,,---,0.00,VWS V14.00,2013-03-16 12:43:00,
2013-03-16 07:48:00,11.1,4.8,30.08,North,0,4.9,5.8,75,0.00,,---,0.00,VWS V14.00,2013-03-16 12:48:00,
2013-03-16 07:53:00,11.3,4.9,30.08,North,0,3.6,4.9,75,0.00,,---,0.00,VWS V14.00,2013-03-16 12:53:00,
2013-03-16 07:58:00,11.3,4.9,30.08,North,353,5.4,5.8,75,0.00,,---,0.00,VWS V14.00,2013-03-16 12:58:00,
2013-03-16 08:03:00,11.7,5.3,30.08,NNW,342,5.8,6.3,75,0.00,,---,0.00,VWS V14.00,2013-03-16 13:03:00,
2013-03-16 08:08:00,12.2,5.8,30.08,NNW,345,6.3,8.3,75,0.00,,---,0.00,VWS V14.00,2013-03-16 13:08:00,
2013-03-16 08:13:00,13.1,6.7,30.08,NNW,345,6.3,8.1,75,0.00,,---,0.00,VWS V14.00,2013-03-16 13:13:00,
2013-03-16 08:18:00,13.8,7.4,30.08,NNW,336,7.6,7.6,75,0.00,,---,0.00,VWS V14.00,2013-03-16 13:18:00,
2013-03-16 08:23:00,14.0,9.0,30.08,NNW,345,8.3,8.7,80,0.00,,---,0.00,VWS V14.00,2013-03-16 13:23:00,
2013-03-16 08:28:00,14.2,8.6,30.08,North,0,8.1,8.7,78,0.00,,---,0.00,VWS V14.00,2013-03-16 13:28:00,
2013-03-16 08:33:00,14.4,8.5,30.08,NNW,337,8.1,8.7,77,0.00,,---,0.00,VWS V14.00,2013-03-16 13:33:00,
2013-03-16 08:38:00,14.9,8.7,30.08,NNW,348,6.3,8.7,76,0.00,,---,0.00,VWS V14.00,2013-03-16 13:38:00,
2013-03-16 08:43:00,15.6,8.8,30.08,NNW,345,6.3,8.3,74,0.00,,---,0.00,VWS V14.00,2013-03-16 13:43:00,
2013-03-16 08:48:00,16.3,8.6,30.08,NNW,338,7.6,8.1,71,0.00,,---,0.00,VWS V14.00,2013-03-16 13:48:00,
2013-03-16 08:53:00,17.1,8.0,30.08,NNW,339,6.3,7.2,67,0.00,,---,0.00,VWS V14.00,2013-03-16 13:53:00,
2013-03-16 08:58:00,17.8,7.3,30.08,North,0,5.8,6.3,63,0.00,,---,0.00,VWS V14.00,2013-03-16 13:58:00,
2013-03-16 09:03:00,18.7,7.5,30.08,NNW,339,5.8,7.2,61,0.00,,---,0.00,VWS V14.00,2013-03-16 14:03:00,
2013-03-16 09:08:00,19.2,6.9,30.08,North,353,7.6,8.1,58,0.00,,---,0.00,VWS V14.00,2013-03-16 14:08:00,
2013-03-16 09:13:00,19.8,6.6,30.11,North,0,5.4,6.3,56,0.00,,---,0.00,VWS V14.00,2013-03-16 14:13:00,
2013-03-16 09:18:00,20.3,6.3,30.11,North,0,7.2,7.6,54,0.00,,---,0.00,VWS V14.00,2013-03-16 14:18:00,
2013-03-16 09:23:00,20.5,6.1,30.11,North,357,9.2,10.5,53,0.00,,---,0.00,VWS V14.00,2013-03-16 14:23:00,
2013-03-16 09:28:00,21.0,6.2,30.11,North,2,8.1,8.7,52,0.00,,---,0.00,VWS V14.00,2013-03-16 14:28:00,
2013-03-16 09:33:00,21.0,5.3,30.11,North,353,7.6,8.7,50,0.00,,---,0.00,VWS V14.00,2013-03-16 14:33:00,
2013-03-16 09:39:00,21.0,5.3,30.11,NNW,331,8.7,8.7,50,0.00,,---,0.00,VWS V14.00,2013-03-16 14:39:00,
2013-03-16 09:44:00,21.4,5.6,30.11,NW,325,6.7,8.7,50,0.00,,---,0.00,VWS V14.00,2013-03-16 14:44:00,
2013-03-16 09:49:00,21.6,4.9,30.11,NNW,343,7.6,10.1,48,0.00,,---,0.00,VWS V14.00,2013-03-16 14:49:00,
2013-03-16 09:54:00,21.7,5.1,30.11,North,357,6.3,8.7,48,0.00,,---,0.00,VWS V14.00,2013-03-16 14:54:00,
2013-03-16 09:59:00,22.1,5.4,30.11,North,357,10.1,10.1,48,0.00,,---,0.00,VWS V14.00,2013-03-16 14:59:00,
2013-03-16 10:04:00,22.6,5.5,30.11,North,357,8.3,8.7,47,0.00,,---,0.00,VWS V14.00,2013-03-16 15:04:00,
2013-03-16 10:09:00,23.4,6.1,30.11,North,0,6.3,8.3,47,0.00,,---,0.00,VWS V14.00,2013-03-16 15:09:00,
2013-03-16 10:14:00,24.3,6.0,30.11,NNW,343,8.3,8.3,45,0.00,,---,0.00,VWS V14.00,2013-03-16 15:14:00,
2013-03-16 10:19:00,24.6,6.3,30.11,North,0,7.2,8.1,45,0.00,,---,0.00,VWS V14.00,2013-03-16 15:19:00,
2013-03-16 10:24:00,25.3,6.5,30.11,North,8,8.3,8.7,44,0.00,,---,0.00,VWS V14.00,2013-03-16 15:24:00,
2013-03-16 10:29:00,26.2,7.3,30.11,North,7,8.1,8.3,44,0.00,,---,0.00,VWS V14.00,2013-03-16 15:29:00,
2013-03-16 10:34:00,27.3,7.8,30.11,North,0,5.8,6.3,43,0.00,,---,0.00,VWS V14.00,2013-03-16 15:34:00,
2013-03-16 10:39:00,28.0,7.9,30.11,NNW,329,3.6,5.8,42,0.00,,---,0.00,VWS V14.00,2013-03-16 15:39:00,
2013-03-16 10:44:00,29.1,8.4,30.11,North,353,5.4,8.1,41,0.00,,---,0.00,VWS V14.00,2013-03-16 15:44:00,
2013-03-16 10:49:00,29.1,8.4,30.11,NW,321,8.3,8.7,41,0.00,,---,0.00,VWS V14.00,2013-03-16 15:49:00,
2013-03-16 10:54:00,28.9,8.2,30.11,NNW,341,6.3,8.7,41,0.00,,---,0.00,VWS V14.00,2013-03-16 15:54:00,
2013-03-16 10:59:00,29.3,8.5,30.11,NW,323,5.8,8.3,41,0.00,,---,0.00,VWS V14.00,2013-03-16 15:59:00,
2013-03-16 11:04:00,30.0,9.2,30.11,WNW,298,6.3,8.7,41,0.00,,---,0.00,VWS V14.00,2013-03-16 16:04:00,
2013-03-16 11:09:00,30.2,9.4,30.11,WNW,289,8.1,8.3,41,0.00,,---,0.00,VWS V14.00,2013-03-16 16:09:00,
2013-03-16 11:14:00,30.0,8.6,30.11,WNW,299,8.3,8.3,40,0.00,,---,0.00,VWS V14.00,2013-03-16 16:14:00,
2013-03-16 11:19:00,28.9,7.7,30.11,NW,311,9.6,10.1,40,0.00,,---,0.00,VWS V14.00,2013-03-16 16:19:00,
2013-03-16 11:24:00,28.9,7.7,30.11,NW,321,8.7,10.1,40,0.00,,---,0.00,VWS V14.00,2013-03-16 16:24:00,
2013-03-16 11:29:00,28.8,7.5,30.11,NW,319,5.8,6.3,40,0.00,,---,0.00,VWS V14.00,2013-03-16 16:29:00,
2013-03-16 11:34:00,29.5,8.1,30.11,NW,306,5.8,6.3,40,0.00,,---,0.00,VWS V14.00,2013-03-16 16:34:00,
2013-03-16 11:39:00,30.4,9.0,30.11,NW,324,5.4,8.7,40,0.00,,---,0.00,VWS V14.00,2013-03-16 16:39:00,
2013-03-16 11:44:00,31.1,9.6,30.11,NW,319,4.0,8.3,40,0.00,,---,0.00,VWS V14.00,2013-03-16 16:44:00,
2013-03-16 11:50:00,32.0,10.4,30.11,NW,313,8.1,10.5,40,0.00,,---,0.00,VWS V14.00,2013-03-16 16:50:00,
2013-03-16 11:55:00,31.3,8.6,30.11,NW,325,8.1,8.7,38,0.00,,---,0.00,VWS V14.00,2013-03-16 16:55:00,
2013-03-16 12:00:00,29.3,7.4,30.11,NW,317,7.6,8.7,39,0.00,,---,0.00,VWS V14.00,2013-03-16 17:00:00,
2013-03-16 12:05:00,28.9,7.7,30.11,NW,322,8.1,8.1,40,0.00,,---,0.00,VWS V14.00,2013-03-16 17:05:00,
2013-03-16 12:10:00,30.0,8.6,30.11,WNW,288,6.3,8.3,40,0.00,,---,0.00,VWS V14.00,2013-03-16 17:10:00,
2013-03-16 12:15:00,31.1,9.1,30.11,West,276,5.8,8.1,39,0.00,,---,0.00,VWS V14.00,2013-03-16 17:15:00,
2013-03-16 12:20:00,31.6,9.0,30.11,WNW,292,6.3,6.3,38,0.00,,---,0.00,VWS V14.00,2013-03-16 17:20:00,
2013-03-16 12:25:00,31.5,8.8,30.11,NW,321,8.1,10.1,38,0.00,,---,0.00,VWS V14.00,2013-03-16 17:25:00,
2013-03-16 12:30:00,31.5,8.8,30.11,NW,325,6.3,10.1,38,0.00,,---,0.00,VWS V14.00,2013-03-16 17:30:00,
2013-03-16 12:35:00,30.9,8.3,30.11,WNW,287,10.1,11.0,38,0.00,,---,0.00,VWS V14.00,2013-03-16 17:35:00,
2013-03-16 12:40:00,31.3,8.6,30.11,West,265,5.8,8.1,38,0.00,,---,0.00,VWS V14.00,2013-03-16 17:40:00,
2013-03-16 12:45:00,32.4,9.6,30.11,WNW,286,4.0,8.7,38,0.00,,---,0.00,VWS V14.00,2013-03-16 17:45:00,
2013-03-16 12:50:00,32.7,9.3,30.11,NW,323,8.1,12.8,37,0.00,,---,0.00,VWS V14.00,2013-03-16 17:50:00,
2013-03-16 12:55:00,31.6,7.8,30.11,WNW,290,7.2,8.3,36,0.00,,---,0.00,VWS V14.00,2013-03-16 17:55:00,
2013-03-16 13:00:00,32.5,9.2,30.11,NW,313,9.6,12.8,37,0.00,,---,0.00,VWS V14.00,2013-03-16 18:00:00,
2013-03-16 13:05:00,28.9,5.9,30.11,NNW,329,11.0,11.0,37,0.00,,---,0.00,VWS V14.00,2013-03-16 18:05:00,
2013-03-16 13:10:00,28.2,5.9,30.11,NW,317,10.1,11.0,38,0.00,,---,0.00,VWS V14.00,2013-03-16 18:10:00,
2013-03-16 13:15:00,28.8,6.4,30.14,NNW,327,7.6,11.0,38,0.00,,---,0.00,VWS V14.00,2013-03-16 18:15:00,
2013-03-16 13:20:00,28.6,5.6,30.14,NW,312,8.7,11.0,37,0.00,,---,0.00,VWS V14.00,2013-03-16 18:20:00,
2013-03-16 13:25:00,28.6,5.6,30.14,North,353,8.3,15.0,37,0.00,,---,0.00,VWS V14.00,2013-03-16 18:25:00,
2013-03-16 13:30:00,29.7,7.2,30.14,WNW,289,10.5,14.1,38,0.00,,---,0.00,VWS V14.00,2013-03-16 18:30:00,
2013-03-16 13:35:00,30.2,7.1,30.14,North,0,8.7,10.5,37,0.00,,---,0.00,VWS V14.00,2013-03-16 18:35:00,
2013-03-16 13:40:00,30.0,6.9,30.14,WNW,300,9.2,10.1,37,0.00,,---,0.00,VWS V14.00,2013-03-16 18:40:00,
2013-03-16 13:45:00,29.8,6.8,30.11,NW,311,6.3,10.5,37,0.00,,---,0.00,VWS V14.00,2013-03-16 18:45:00,
2013-03-16 13:50:00,29.8,6.2,30.11,NW,324,6.3,11.4,36,0.00,,---,0.00,VWS V14.00,2013-03-16 18:50:00,
2013-03-16 13:55:00,29.5,5.8,30.11,West,275,10.5,10.5,36,0.00,,---,0.00,VWS V14.00,2013-03-16 18:55:00,
2013-03-16 14:00:00,30.0,6.9,30.11,NW,326,9.2,11.0,37,0.00,,---,0.00,VWS V14.00,2013-03-16 19:00:00,
2013-03-16 14:06:00,29.7,6.0,30.11,NW,318,8.1,11.0,36,0.00,,---,0.00,VWS V14.00,2013-03-16 19:06:00,
2013-03-16 14:11:00,30.0,6.3,30.11,WNW,297,8.1,11.0,36,0.00,,---,0.00,VWS V14.00,2013-03-16 19:11:00,
2013-03-16 14:16:00,30.2,7.1,30.11,WNW,303,8.7,10.5,37,0.00,,---,0.00,VWS V14.00,2013-03-16 19:16:00,
2013-03-16 14:21:00,30.4,6.0,30.11,NW,305,8.3,10.5,35,0.00,,---,0.00,VWS V14.00,2013-03-16 19:21:00,
2013-03-16 14:26:00,30.2,5.9,30.11,WNW,303,6.3,10.5,35,0.00,,---,0.00,VWS V14.00,2013-03-16 19:26:00,
2013-03-16 14:31:00,31.1,6.7,30.11,NW,314,5.8,8.3,35,0.00,,---,0.00,VWS V14.00,2013-03-16 19:31:00,
2013-03-16 14:36:00,31.1,6.7,30.11,NNW,344,8.7,8.7,35,0.00,,---,0.00,VWS V14.00,2013-03-16 19:36:00,
2013-03-16 14:41:00,30.7,6.3,30.11,NW,309,8.7,8.7,35,0.00,,---,0.00,VWS V14.00,2013-03-16 19:41:00,
2013-03-16 14:46:00,30.2,5.9,30.11,NW,323,8.7,11.0,35,0.00,,---,0.00,VWS V14.00,2013-03-16 19:46:00,
2013-03-16 14:51:00,29.7,6.0,30.11,NW,304,5.8,11.0,36,0.00,,---,0.00,VWS V14.00,2013-03-16 19:51:00,
2013-03-16 14:56:00,30.4,6.0,30.11,WNW,302,10.5,10.5,35,0.00,,---,0.00,VWS V14.00,2013-03-16 19:56:00,
2013-03-16 15:02:00,30.4,6.0,30.11,NW,308,8.3,12.3,35,0.00,,---,0.00,VWS V14.00,2013-03-16 20:02:00,
2013-03-16 15:07:00,30.2,5.9,30.11,North,353,12.8,12.8,35,0.00,,---,0.00,VWS V14.00,2013-03-16 20:07:00,
2013-03-16 15:12:00,29.5,5.8,30.11,NNW,333,8.1,12.8,36,0.00,,---,0.00,VWS V14.00,2013-03-16 20:12:00,
2013-03-16 15:17:00,30.0,6.3,30.11,NNW,331,12.3,12.3,36,0.00,,---,0.00,VWS V14.00,2013-03-16 20:17:00,
2013-03-16 15:22:00,30.4,6.0,30.11,NW,321,8.7,12.8,35,0.00,,---,0.00,VWS V14.00,2013-03-16 20:22:00,
2013-03-16 15:27:00,30.2,5.9,30.11,NNW,337,8.7,11.0,35,0.00,,---,0.00,VWS V14.00,2013-03-16 20:27:00,
2013-03-16 15:32:00,30.0,5.7,30.11,NNW,330,9.6,10.5,35,0.00,,---,0.00,VWS V14.00,2013-03-16 20:32:00,
2013-03-16 15:37:00,29.3,5.1,30.11,NW,321,9.6,12.3,35,0.00,,---,0.00,VWS V14.00,2013-03-16 20:37:00,
2013-03-16 15:42:00,28.8,4.6,30.11,NNW,339,8.3,12.8,35,0.00,,---,0.00,VWS V14.00,2013-03-16 20:42:00,
2013-03-16 15:47:00,28.4,4.2,30.11,NW,318,12.3,12.3,35,0.00,,---,0.00,VWS V14.00,2013-03-16 20:47:00,
2013-03-16 15:52:00,28.0,4.5,30.11,NW,316,7.6,10.1,36,0.00,,---,0.00,VWS V14.00,2013-03-16 20:52:00,
2013-03-16 15:57:00,28.4,4.9,30.11,NW,322,8.7,12.8,36,0.00,,---,0.00,VWS V14.00,2013-03-16 20:57:00,
2013-03-16 16:02:00,28.6,4.4,30.11,NW,313,10.5,11.4,35,0.00,,---,0.00,VWS V14.00,2013-03-16 21:02:00,
2013-03-16 16:07:00,28.4,4.2,30.11,NW,325,6.7,11.0,35,0.00,,---,0.00,VWS V14.00,2013-03-16 21:07:00,
2013-03-16 16:12:00,28.0,3.9,30.08,North,353,10.1,13.2,35,0.00,,---,0.00,VWS V14.00,2013-03-16 21:12:00,
2013-03-16 16:17:00,27.1,3.1,30.08,West,271,8.7,11.9,35,0.00,,---,0.00,VWS V14.00,2013-03-16 21:17:00,
2013-03-16 16:22:00,26.8,3.4,30.08,NW,310,7.6,12.3,36,0.00,,---,0.00,VWS V14.00,2013-03-16 21:22:00,
2013-03-16 16:27:00,26.8,3.4,30.08,NW,318,7.6,11.4,36,0.00,,---,0.00,VWS V14.00,2013-03-16 21:27:00,
2013-03-16 16:32:00,27.3,3.9,30.08,NNW,336,8.3,14.5,36,0.00,,---,0.00,VWS V14.00,2013-03-16 21:32:00,
2013-03-16 16:38:00,27.0,3.6,30.08,NNW,336,6.3,10.5,36,0.00,,---,0.00,VWS V14.00,2013-03-16 21:38:00,
2013-03-16 16:43:00,27.1,3.7,30.08,NNW,328,14.1,14.1,36,0.00,,---,0.00,VWS V14.00,2013-03-16 21:43:00,
2013-03-16 16:48:00,26.4,3.1,30.08,NW,308,8.7,8.7,36,0.00,,---,0.00,VWS V14.00,2013-03-16 21:48:00,
2013-03-16 16:53:00,26.6,3.3,30.08,NW,315,7.6,13.2,36,0.00,,---,0.00,VWS V14.00,2013-03-16 21:53:00,
2013-03-16 16:58:00,26.4,3.1,30.08,NW,321,7.6,10.1,36,0.00,,---,0.00,VWS V14.00,2013-03-16 21:58:00,
2013-03-16 17:03:00,25.5,2.3,30.08,NW,319,12.8,12.8,36,0.00,,---,0.00,VWS V14.00,2013-03-16 22:03:00,
2013-03-16 17:08:00,24.8,1.6,30.08,NW,305,13.2,13.2,36,0.00,,---,0.00,VWS V14.00,2013-03-16 22:08:00,
2013-03-16 17:13:00,24.4,1.9,30.08,NNW,338,10.5,15.9,37,0.00,,---,0.00,VWS V14.00,2013-03-16 22:13:00,
2013-03-16 17:18:00,24.4,1.9,30.08,NW,307,10.5,12.3,37,0.00,,---,0.00,VWS V14.00,2013-03-16 22:18:00,
2013-03-16 17:23:00,24.1,1.6,30.08,NW,310,10.1,13.2,37,0.00,,---,0.00,VWS V14.00,2013-03-16 22:23:00,
2013-03-16 17:28:00,23.4,0.9,30.08,NNW,337,8.1,10.1,37,0.00,,---,0.00,VWS V14.00,2013-03-16 22:28:00,
2013-03-16 17:33:00,22.8,0.5,30.08,WSW,239,6.3,11.0,37,0.00,,---,0.00,VWS V14.00,2013-03-16 22:33:00,
2013-03-16 17:38:00,22.5,0.1,30.08,NW,325,11.0,12.8,37,0.00,,---,0.00,VWS V14.00,2013-03-16 22:38:00,
2013-03-16 17:43:00,22.1,-0.2,30.08,NW,319,11.0,11.4,37,0.00,,---,0.00,VWS V14.00,2013-03-16 22:43:00,
2013-03-16 17:48:00,22.1,-0.2,30.08,NW,314,8.7,11.0,37,0.00,,---,0.00,VWS V14.00,2013-03-16 22:48:00,
2013-03-16 17:53:00,22.1,0.4,30.08,NNW,334,8.3,11.0,38,0.00,,---,0.00,VWS V14.00,2013-03-16 22:53:00,
2013-03-16 17:58:00,21.9,0.2,30.08,NW,324,10.1,11.9,38,0.00,,---,0.00,VWS V14.00,2013-03-16 22:58:00,
2013-03-16 18:03:00,21.6,-0.1,30.08,NW,307,8.7,11.0,38,0.00,,---,0.00,VWS V14.00,2013-03-16 23:03:00,
2013-03-16 18:08:00,21.2,0.1,30.08,WNW,287,10.5,13.2,39,0.00,,---,0.00,VWS V14.00,2013-03-16 23:08:00,
2013-03-16 18:13:00,21.2,0.1,30.08,NW,325,8.7,10.1,39,0.00,,---,0.00,VWS V14.00,2013-03-16 23:13:00,
2013-03-16 18:18:00,20.8,-0.2,30.08,NW,319,5.8,8.3,39,0.00,,---,0.00,VWS V14.00,2013-03-16 23:18:00,
2013-03-16 18:23:00,20.7,-0.4,30.08,WNW,295,10.5,10.5,39,0.00,,---,0.00,VWS V14.00,2013-03-16 23:23:00,
2013-03-16 18:28:00,20.3,-0.7,30.11,WNW,301,10.1,12.8,39,0.00,,---,0.00,VWS V14.00,2013-03-16 23:28:00,
2013-03-16 18:33:00,19.8,-1.2,30.11,NW,316,8.7,8.7,39,0.00,,---,0.00,VWS V14.00,2013-03-16 23:33:00,
2013-03-16 18:38:00,19.4,-0.4,30.11,NW,312,8.3,11.0,41,0.00,,---,0.00,VWS V14.00,2013-03-16 23:38:00,
2013-03-16 18:43:00,19.2,-0.6,30.11,NW,311,8.3,8.3,41,0.00,,---,0.00,VWS V14.00,2013-03-16 23:43:00,
2013-03-16 18:48:00,19.0,-0.3,30.11,NW,309,7.6,11.0,42,0.00,,---,0.00,VWS V14.00,2013-03-16 23:48:00,
2013-03-16 18:54:00,18.7,-0.6,30.11,WNW,299,11.0,12.3,42,0.00,,---,0.00,VWS V14.00,2013-03-16 23:54:00,
2013-03-16 18:59:00,18.3,-0.4,30.11,NNW,329,8.3,8.3,43,0.00,,---,0.00,VWS V14.00,2013-03-16 23:59:00,
2013-03-16 19:04:00,17.8,-0.9,30.11,NW,304,8.1,8.7,43,0.00,,---,0.00,VWS V14.00,2013-03-17 00:04:00,
2013-03-16 19:09:00,17.6,-1.1,30.11,NNW,329,8.7,8.7,43,0.00,,---,0.00,VWS V14.00,2013-03-17 00:09:00,
2013-03-16 19:14:00,17.1,-1.1,30.11,NW,309,7.2,8.3,44,0.00,,---,0.00,VWS V14.00,2013-03-17 00:14:00,
2013-03-16 19:19:00,16.9,-1.2,30.11,NW,312,8.3,8.3,44,0.00,,---,0.00,VWS V14.00,2013-03-17 00:19:00,
2013-03-16 19:24:00,16.7,-1.4,30.11,WNW,293,6.3,8.7,44,0.00,,---,0.00,VWS V14.00,2013-03-17 00:24:00,
2013-03-16 19:29:00,16.5,-1.6,30.14,NW,322,5.8,10.5,44,0.00,,---,0.00,VWS V14.00,2013-03-17 00:29:00,
2013-03-16 19:34:00,16.2,-1.9,30.14,NW,315,10.1,11.0,44,0.00,,---,0.00,VWS V14.00,2013-03-17 00:34:00,
2013-03-16 19:39:00,16.0,-2.1,30.14,NW,320,5.8,8.1,44,0.00,,---,0.00,VWS V14.00,2013-03-17 00:39:00,
2013-03-16 19:44:00,15.8,-1.8,30.14,West,263,4.0,9.6,45,0.00,,---,0.00,VWS V14.00,2013-03-17 00:44:00,
2013-03-16 19:49:00,15.6,-1.9,30.14,NW,311,8.7,8.7,45,0.00,,---,0.00,VWS V14.00,2013-03-17 00:49:00,
2013-03-16 19:54:00,15.4,-2.1,30.14,WNW,299,5.8,8.1,45,0.00,,---,0.00,VWS V14.00,2013-03-17 00:54:00,
2013-03-16 19:59:00,15.3,-2.3,30.14,NW,307,5.4,5.8,45,0.00,,---,0.00,VWS V14.00,2013-03-17 00:59:00,
2013-03-16 20:04:00,15.1,-2.4,30.14,WNW,292,3.6,5.8,45,0.00,,---,0.00,VWS V14.00,2013-03-17 01:04:00,
2013-03-16 20:09:00,14.7,-2.3,30.14,WNW,297,4.9,4.9,46,0.00,,---,0.00,VWS V14.00,2013-03-17 01:09:00,
2013-03-16 20:14:00,14.5,-2.5,30.14,NNW,329,5.8,6.3,46,0.00,,---,0.00,VWS V14.00,2013-03-17 01:14:00,
2013-03-16 20:19:00,14.4,-2.6,30.14,WNW,290,5.4,7.6,46,0.00,,---,0.00,VWS V14.00,2013-03-17 01:19:00,
2013-03-16 20:24:00,14.4,-2.6,30.14,WNW,282,2.7,8.7,46,0.00,,---,0.00,VWS V14.00,2013-03-17 01:24:00,
2013-03-16 20:29:00,14.2,-2.3,30.17,West,275,6.3,6.3,47,0.00,,---,0.00,VWS V14.00,2013-03-17 01:29:00,
2013-03-16 20:34:00,14.2,-2.3,30.17,WNW,302,5.8,6.7,47,0.00,,---,0.00,VWS V14.00,2013-03-17 01:34:00,
2013-03-16 20:39:00,13.8,-2.7,30.17,WNW,298,3.6,5.4,47,0.00,,---,0.00,VWS V14.00,2013-03-17 01:39:00,
2013-03-16 20:44:00,13.6,-2.8,30.17,NW,315,5.8,6.3,47,0.00,,---,0.00,VWS V14.00,2013-03-17 01:44:00,
2013-03-16 20:49:00,13.6,-2.8,30.17,WNW,293,3.6,6.3,47,0.00,,---,0.00,VWS V14.00,2013-03-17 01:49:00,
2013-03-16 20:54:00,13.6,-2.8,30.17,WNW,296,3.6,7.2,47,0.00,,---,0.00,VWS V14.00,2013-03-17 01:54:00,
2013-03-16 21:00:00,13.6,-2.8,30.17,NW,320,4.0,6.3,47,0.00,,---,0.00,VWS V14.00,2013-03-17 02:00:00,
2013-03-16 21:05:00,13.5,-3.0,30.17,WNW,303,6.7,6.7,47,0.00,,---,0.00,VWS V14.00,2013-03-17 02:05:00,
2013-03-16 21:10:00,13.5,-3.0,30.17,WNW,298,5.4,7.2,47,0.00,,---,0.00,VWS V14.00,2013-03-17 02:10:00,
2013-03-16 21:15:00,13.3,-3.2,30.17,NW,304,2.7,4.0,47,0.00,,---,0.00,VWS V14.00,2013-03-17 02:15:00,
2013-03-16 21:20:00,12.9,-3.5,30.17,West,264,4.0,5.4,47,0.00,,---,0.00,VWS V14.00,2013-03-17 02:20:00,
2013-03-16 21:25:00,12.7,-3.7,30.17,WNW,301,5.8,7.6,47,0.00,,---,0.00,VWS V14.00,2013-03-17 02:25:00,
2013-03-16 21:30:00,12.6,-3.8,30.17,NW,321,7.6,8.3,47,0.00,,---,0.00,VWS V14.00,2013-03-17 02:30:00,
2013-03-16 21:35:00,12.6,-3.8,30.17,NW,314,6.3,6.3,47,0.00,,---,0.00,VWS V14.00,2013-03-17 02:35:00,
2013-03-16 21:40:00,12.4,-4.0,30.17,NW,321,6.3,6.3,47,0.00,,---,0.00,VWS V14.00,2013-03-17 02:40:00,
2013-03-16 21:45:00,12.2,-4.2,30.17,NW,312,6.3,8.3,47,0.00,,---,0.00,VWS V14.00,2013-03-17 02:45:00,
2013-03-16 21:50:00,12.0,-4.3,30.17,NW,320,5.8,8.3,47,0.00,,---,0.00,VWS V14.00,2013-03-17 02:50:00,
2013-03-16 21:55:00,12.0,-4.3,30.17,NW,311,7.6,7.6,47,0.00,,---,0.00,VWS V14.00,2013-03-17 02:55:00,
2013-03-16 22:00:00,11.8,-4.5,30.17,NW,314,5.8,8.3,47,0.00,,---,0.00,VWS V14.00,2013-03-17 03:00:00,
2013-03-16 22:05:00,11.7,-4.7,30.17,WNW,288,5.4,8.3,47,0.00,,---,0.00,VWS V14.00,2013-03-17 03:05:00,
2013-03-16 22:10:00,11.5,-4.8,30.17,NW,317,6.3,8.7,47,0.00,,---,0.00,VWS V14.00,2013-03-17 03:10:00,
2013-03-16 22:15:00,11.3,-5.0,30.17,NW,320,7.6,8.7,47,0.00,,---,0.00,VWS V14.00,2013-03-17 03:15:00,
2013-03-16 22:20:00,11.3,-5.0,30.17,NNW,333,8.3,8.3,47,0.00,,---,0.00,VWS V14.00,2013-03-17 03:20:00,
2013-03-16 22:25:00,11.1,-5.2,30.17,NW,312,7.6,8.3,47,0.00,,---,0.00,VWS V14.00,2013-03-17 03:25:00,
2013-03-16 22:30:00,11.1,-5.2,30.17,NW,319,6.7,8.7,47,0.00,,---,0.00,VWS V14.00,2013-03-17 03:30:00,
2013-03-16 22:35:00,10.9,-5.3,30.17,NW,322,5.8,7.6,47,0.00,,---,0.00,VWS V14.00,2013-03-17 03:35:00,
2013-03-16 22:40:00,10.8,-5.5,30.17,NW,316,4.9,5.4,47,0.00,,---,0.00,VWS V14.00,2013-03-17 03:40:00,
2013-03-16 22:45:00,10.4,-5.8,30.20,NW,324,5.4,6.3,47,0.00,,---,0.00,VWS V14.00,2013-03-17 03:45:00,
2013-03-16 22:50:00,10.2,-6.0,30.20,NNW,330,5.8,7.6,47,0.00,,---,0.00,VWS V14.00,2013-03-17 03:50:00,
2013-03-16 22:55:00,10.0,-6.2,30.20,NNW,335,6.3,8.1,47,0.00,,---,0.00,VWS V14.00,2013-03-17 03:55:00,
2013-03-16 23:00:00,9.7,-6.5,30.20,NW,314,4.0,6.3,47,0.00,,---,0.00,VWS V14.00,2013-03-17 04:00:00,
2013-03-16 23:05:00,9.5,-6.7,30.20,NNW,327,5.4,7.6,47,0.00,,---,0.00,VWS V14.00,2013-03-17 04:05:00,
2013-03-16 23:10:00,9.1,-7.0,30.20,NNW,343,5.4,5.4,47,0.00,,---,0.00,VWS V14.00,2013-03-17 04:10:00,
2013-03-16 23:15:00,8.8,-7.3,30.20,NW,322,6.3,6.3,47,0.00,,---,0.00,VWS V14.00,2013-03-17 04:15:00,
2013-03-16 23:20:00,8.6,-7.5,30.20,NNW,335,5.8,7.6,47,0.00,,---,0.00,VWS V14.00,2013-03-17 04:20:00,
2013-03-16 23:25:00,8.8,-7.3,30.20,NW,326,5.4,6.3,47,0.00,,---,0.00,VWS V14.00,2013-03-17 04:25:00,
2013-03-16 23:30:00,8.4,-7.7,30.20,NNW,334,4.0,4.9,47,0.00,,---,0.00,VWS V14.00,2013-03-17 04:30:00,
2013-03-16 23:35:00,8.1,-8.0,30.20,NW,325,4.0,5.4,47,0.00,,---,0.00,VWS V14.00,2013-03-17 04:35:00,
2013-03-16 23:40:00,7.7,-8.3,30.20,NNW,330,3.6,5.4,47,0.00,,---,0.00,VWS V14.00,2013-03-17 04:40:00,
2013-03-16 23:45:00,7.5,-8.5,30.20,NNW,332,5.4,5.8,47,0.00,,---,0.00,VWS V14.00,2013-03-17 04:45:00,
2013-03-16 23:50:00,7.5,-8.5,30.20,NNW,335,4.0,7.2,47,0.00,,---,0.00,VWS V14.00,2013-03-17 04:50:00,
2013-03-16 23:55:00,7.7,-8.3,30.20,NNW,333,5.4,6.7,47,0.00,,---,0.00,VWS V14.00,2013-03-17 04:55:00,